Home   Weather   Kloten   Past weeks

Flag for Switzerland Past Weather in Kloten, Zurich, Switzerland — Yesterday and Last 2 Weeks

Now
43 °F

Sunny.


Feels Like: 43 °F
Forecast: 26 / 47 °F
Wind: 2 mph from North

Location: Zurich-Kloten

Current Time: Dec 9, 2016 at 2:56:18 pm

Latest Report: Dec 9, 2016 at 2:20 pm


Visibility: 10 mi

Pressure: 30.48 "Hg

Humidity: 71%

Dew Point: 34 °F

Location of KlotenLocation

Past Weather in Kloten — Graph

°F

Kloten Temperature Yesterday

Maximum temperature yesterday: 43 °F (at 2:50 pm)
Minimum temperature yesterday: 25 °F (at 11:50 pm)
Average temperature yesterday: 32 °F

High & Low Weather Summary for the Past Weeks

 TemperatureHumidityPressure
High48 °F (Nov 24, 1:20 pm)100% (Nov 26, 2:50 am)30.60 "Hg (Nov 26, 2:50 am)
Low19 °F (Nov 30, 3:50 am)45% (Nov 28, 1:50 pm)29.86 "Hg (Nov 25, 5:20 am)
Average34 °F86%30.28 "Hg
* Reported Nov 24 1:20 pm — Dec 9 1:20 pm, Kloten, Weather by CustomWeather, © 2016

Note: Actual official high and low records may vary slightly from our data, if they occured in-between our weather recording intervals... More about our weather records

Advertising

Kloten Weather History for the Previous 24 Hours

Scroll right to see more
 ConditionsComfort  
Time TempWeatherWind HumidityBarometerVisibility
1:20 pm
Fri, Dec 9
39 °FSunny.2 mph75%30.51 "Hg10 mi
12:50 pm36 °FPassing clouds.3 mph87%30.51 "HgN/A
12:20 pm34 °FClear.2 mph87%30.54 "Hg6 mi
11:50 am32 °FClear.3 mph87%30.54 "Hg6 mi
11:20 am30 °FClear.3 mph93%30.54 "Hg5 mi
10:50 am30 °FFog.2 mph93%30.54 "Hg4 mi
10:20 am28 °FIce fog.No wind93%30.54 "Hg3 mi
9:50 am27 °FChilly.3 mph93%30.54 "Hg3 mi
9:20 am25 °FCold.3 mph100%30.54 "Hg3 mi
8:50 am23 °FFog.3 mph93%30.54 "Hg4 mi
8:20 am21 °FClear.3 mph93%30.54 "Hg5 mi
7:50 am21 °FFog.1 mph93%30.54 "Hg5 mi
7:20 am21 °FPassing clouds.1 mph100%30.54 "Hg4 mi
6:50 am21 °FClear.5 mph93%30.54 "Hg5 mi
6:20 am21 °FClear.2 mph93%30.54 "Hg6 mi
5:20 am21 °FClear.5 mph93%30.54 "Hg4 mi
4:50 am23 °FClear.No wind100%30.54 "Hg4 mi
4:20 am25 °FIce fog.2 mph93%30.54 "Hg3 mi
3:50 am25 °FPassing clouds.2 mph93%30.54 "Hg4 mi
3:20 am27 °FClear.3 mph93%30.54 "Hg4 mi
2:50 am25 °FClear.5 mph100%30.54 "Hg4 mi
2:20 am27 °FIce fog.6 mph93%30.54 "Hg3 mi
1:50 am25 °FIce fog.5 mph100%30.54 "Hg2 mi
1:20 am25 °FIce fog.6 mph93%30.54 "Hg2 mi
12:50 am27 °FChilly.3 mph93%30.54 "Hg1 mi
12:20 am27 °FIce fog.3 mph93%30.54 "Hg2 mi
11:50 pm
Thu, Dec 8
25 °FIce fog.3 mph100%30.54 "Hg2 mi
11:20 pm27 °FLight fog.2 mph100%30.54 "Hg1 mi
10:50 pm27 °FLight fog.1 mph100%30.54 "Hg2 mi
10:20 pm28 °FLight fog.No wind93%30.54 "Hg3 mi
9:50 pm28 °FFog.1 mph93%30.54 "Hg4 mi
9:20 pm28 °FClear.5 mph93%30.54 "Hg4 mi
8:50 pm30 °FFog.2 mph100%30.54 "Hg4 mi
8:20 pm30 °FClear.2 mph93%30.54 "Hg5 mi
7:50 pm30 °FClear.3 mph93%30.54 "Hg5 mi
7:20 pm30 °FClear.1 mph93%30.54 "Hg10 mi
6:50 pm32 °FPassing clouds.3 mph87%30.54 "HgN/A
6:20 pm34 °FClear.2 mph81%30.54 "Hg10 mi
5:50 pm36 °FClear.2 mph75%30.54 "Hg10 mi
5:20 pm34 °FClear.2 mph81%30.54 "Hg10 mi
4:50 pm37 °FClear.5 mph75%30.54 "Hg10 mi
4:20 pm37 °FSunny.6 mph75%30.51 "Hg10 mi
3:50 pm41 °FSunny.6 mph66%30.51 "Hg10 mi
3:20 pm43 °FSunny.6 mph61%30.51 "Hg10 mi
2:50 pm43 °FPassing clouds.5 mph66%30.51 "HgN/A
2:20 pm41 °FClear.6 mph66%30.51 "Hg6 mi
Weather by CustomWeather, © 2016

See weather overviewHow to use our weather pages